"2009-03-18 00:00:00",720339,12.24,321.9,1.086,0.176,15.05,106.5225,15.97,16.98,14,0,110.5,13.3,16.78,283.9
"2009-03-18 00:00:30",720340,11.62,320.9,0.694,0.38,15.01,106.5225,15.97,16.99,14,0,110.5,13.3,16.78,282.9
"2009-03-18 00:01:00",720341,11.68,319.9,2.083,0.365,14.98,106.5225,15.97,16.99,14.02,0,110.5,13.3,16.78,281.9
"2009-03-18 00:01:30",720342,11.71,322.3,1.871,0.465,14.92,106.5225,15.97,17,14.03,0,110.5,13.3,16.78,284.3
"2009-03-18 00:02:00",720343,12.39,319.8,1.433,0.221,14.92,106.5225,15.97,17,14,0,110.5,13.3,16.78,281.8
"2009-03-18 00:02:30",720344,12.09,320.9,1.546,0.462,14.91,106.5225,15.97,17,13.95,0,110.5,13.3,16.78,282.9
"2009-03-18 00:03:00",720345,11.18,324.6,1.671,0.114,14.84,106.5236,15.97,17.01,13.97,0,110.5,13.3,16.78,286.6
"2009-03-18 00:03:30",720346,11.38,325.2,1.134,0.388,14.84,106.5329,16,17,14.01,0,110.5,13.3,16.81,287.2
"2009-03-18 00:04:00",720347,11.88,324.2,1.718,0.468,14.85,106.5495,16.04,17.02,14,0,110.5,13.3,16.85,286.2
"2009-03-18 00:04:30",720348,12.3,322.6,1.974,0.502,14.88,106.5554,16.06,17.02,13.98,0,110.5,13.3,16.86,284.6
"2009-03-18 00:05:00",720349,11.92,323.1,1.388,0.217,14.89,106.5563,16.06,17.05,13.98,0,110.5,13.3,16.87,285.1
"2009-03-18 00:05:30",720350,12.02,324,1.456,0.134,14.87,106.5563,16.06,17.06,14,0,110.5,13.3,16.87,286.0
"2009-03-18 00:06:00",720351,12.32,317.8,1.905,0.286,14.94,106.5571,16.06,17.08,13.96,0,110.5,13.3,16.87,279.8
"2009-03-18 00:06:30",720352,11.78,317.7,1.364,0.353,14.89,106.5706,16.09,17.08,13.96,0,110.5,13.3,16.90,279.7
"2009-03-18 00:07:00",720353,11.14,319.6,3.281,0.538,14.89,106.5816,16.12,17.12,13.85,0,110.5,13.3,16.93,281.6
"2009-03-18 00:07:30",720354,12.79,317.4,3.023,0.299,14.97,106.5901,16.14,17.1,13.71,0,110.5,13.3,16.95,279.4
"2009-03-18 00:08:00",720355,12.08,320.4,2.774,0.562,14.95,106.5901,16.14,17.11,13.64,0,110.5,13.3,16.95,282.4
"2009-03-18 00:08:30",720356,11.65,322.4,2.644,0.332,14.93,106.5901,16.14,17.12,13.78,0,110.5,13.3,16.95,284.4
"2009-03-18 00:09:00",720357,11.03,325.9,1.576,0.235,14.88,106.5901,16.14,17.15,14.02,0,110.5,13.3,16.95,287.9
"2009-03-18 00:09:30",720358,10.91,324.7,2.54,0.183,14.8,106.5979,16.16,17.15,14.14,0,110.5,13.3,16.97,286.7
"2009-03-18 00:10:00",720359,11.66,326,3.1,0.376,14.77,106.6117,16.2,17.19,14.25,0,110.5,13.3,17.01,288.0
"2009-03-18 00:10:30",720360,11.77,326.9,2.153,0.459,14.78,106.6179,16.22,17.2,14.39,0,110.5,13.29,17.02,288.9
"2009-03-18 00:11:00",720361,12.19,327.2,1.325,0.165,14.86,106.6208,16.22,17.18,14.49,0,110.5,13.29,17.03,289.2
"2009-03-18 00:11:30",720362,11.89,330.9,0.858,0.279,14.87,106.6208,16.22,17.18,14.5,0,110.5,13.29,17.03,292.9
"2009-03-18 00:12:00",720363,11.95,329,1.367,0.273,14.83,106.6222,16.23,17.19,14.52,0,110.5,13.29,17.04,291.0
"2009-03-18 00:12:30",720364,12.76,326.8,2.448,0.228,14.86,106.6222,16.23,17.22,14.51,0,110.5,13.29,17.04,288.8
"2009-03-18 00:13:00",720365,13.11,321,0.85,0.312,14.95,106.6219,16.23,17.21,14.43,0,110.5,13.3,17.03,283.0
"2009-03-18 00:13:30",720366,12.05,325,2.633,0.53,14.85,106.6227,16.23,17.2,14.47,0,110.5,13.3,17.04,287.0
"2009-03-18 00:14:00",720367,11.99,325.4,1.493,0.307,14.85,106.6233,16.23,17.22,14.49,0,110.5,13.3,17.04,287.4
"2009-03-18 00:14:30",720368,12.02,327.1,2.355,0.229,14.87,106.6239,16.23,17.22,14.47,0,110.5,13.3,17.04,289.1
"2009-03-18 00:15:00",720369,12.27,330.6,1.086,0.245,14.88,106.6239,16.23,17.21,14.61,0,110.5,13.3,17.04,292.6
"2009-03-18 00:15:30",720370,11.94,331.6,1.442,0.173,14.77,106.6239,16.23,17.2,14.86,0,110.5,13.3,17.04,293.6
"2009-03-18 00:16:00",720371,12.15,330.7,0.802,0.222,14.79,106.6227,16.23,17.22,14.98,0,110.5,13.3,17.04,292.7
"2009-03-18 00:16:30",720372,11.27,328.9,1.539,0.47,14.81,106.6208,16.22,17.21,14.83,0,110.5,13.3,17.03,290.9
"2009-03-18 00:17:00",720373,11.05,328.7,1.4,0.248,14.81,106.6179,16.22,17.2,14.83,0,110.5,13.3,17.02,290.7
"2009-03-18 00:17:30",720374,11.91,320.7,3.101,0.323,14.83,106.616,16.21,17.21,14.89,0,110.5,13.3,17.02,282.7
"2009-03-18 00:18:00",720375,11.32,319.3,1.781,0.369,14.78,106.6101,16.2,17.2,14.95,0,110.5,13.3,17.00,281.3
"2009-03-18 00:18:30",720376,11.97,322.6,1.302,0.29,14.86,106.6047,16.18,17.2,14.9,0,110.5,13.3,16.99,284.6
"2009-03-18 00:19:00",720377,11.76,323,2.699,0.441,14.79,106.5968,16.16,17.2,14.8,0,110.5,13.3,16.97,285.0
"2009-03-18 00:19:30",720378,11.38,327.4,2.227,0.495,14.73,106.5909,16.15,17.19,15.01,0,110.5,13.3,16.96,289.4
"2009-03-18 00:20:00",720379,11.67,327.2,1.692,0.337,14.86,106.5901,16.14,17.2,15.09,0,110.5,13.3,16.95,289.2
"2009-03-18 00:20:30",720380,12.68,330.6,2.215,0.379,14.94,106.5901,16.14,17.17,15,0,110.5,13.3,16.95,292.6
"2009-03-18 00:21:00",720381,12.54,328.3,2.326,0.402,14.95,106.5901,16.14,17.17,15.07,0,110.5,13.3,16.95,290.3
"2009-03-18 00:21:30",720382,12.78,328.6,1.247,0.233,14.94,106.5901,16.14,17.16,15.12,0,110.5,13.3,16.95,290.6
"2009-03-18 00:22:00",720383,12.33,330.3,0.679,0.336,14.9,106.5901,16.14,17.16,15.15,0,110.5,13.3,16.95,292.3
"2009-03-18 00:22:30",720384,12.83,330.1,1.535,0.305,14.98,106.5788,16.12,17.15,15.05,0,110.5,13.3,16.92,292.1
"2009-03-18 00:23:00",720385,12.6,327.6,2.003,0.446,15,106.5636,16.08,17.14,14.91,0,110.5,13.3,16.88,289.6
"2009-03-18 00:23:30",720386,12.33,326,2.303,0.274,15,106.5563,16.06,17.12,14.82,0,110.5,13.3,16.87,288.0
"2009-03-18 00:24:00",720387,11.69,326.7,1.144,0.44,14.92,106.5563,16.06,17.11,14.93,0,110.5,13.3,16.87,288.7
"2009-03-18 00:24:30",720388,12.04,326.1,1.647,0.53,14.94,106.5563,16.06,17.09,14.91,0,110.5,13.3,16.87,288.1
"2009-03-18 00:25:00",720389,12.21,326,1.513,0.334,14.9,106.5563,16.06,17.09,15.12,0,110.5,13.3,16.87,288.0
"2009-03-18 00:25:30",720390,12.62,326.4,2.771,0.267,14.92,106.5554,16.06,17.08,15.16,0,110.5,13.3,16.86,288.4
"2009-03-18 00:26:00",720391,12.01,322.8,2.125,0.421,14.98,106.5453,16.03,17.06,15.14,0,110.5,13.29,16.84,284.8
"2009-03-18 00:26:30",720392,12.06,316.9,0.984,0.416,15,106.5329,16,17.06,15.15,0,110.5,13.29,16.81,278.9
"2009-03-18 00:27:00",720393,12.16,325.8,2.923,0.32,15.02,106.5242,15.98,17.04,15.09,0,110.5,13.29,16.78,287.8
"2009-03-18 00:27:30",720394,12.27,326.8,1.633,0.413,14.97,106.5225,15.97,17.04,14.89,0,110.5,13.29,16.78,288.8
"2009-03-18 00:28:00",720395,12.42,325.7,1.726,0.276,14.97,106.5225,15.97,17.03,14.9,0,110.6,13.29,16.78,287.7
"2009-03-18 00:28:30",720396,13.32,326.4,1.329,0.165,14.94,106.5225,15.97,17.03,15.22,0,110.5,13.29,16.78,288.4
"2009-03-18 00:29:00",720397,13.47,326.9,0.696,0.272,14.99,106.5225,15.97,17.01,15.05,0,110.6,13.29,16.78,288.9
"2009-03-18 00:29:30",720398,12.79,324.9,1.344,0.142,14.95,106.5225,15.97,17,15.05,0,110.6,13.29,16.78,286.9
"2009-03-18 00:30:00",720399,12.32,321.2,1.558,0.179,14.93,106.5225,15.97,17.01,15.19,0,110.6,13.3,16.78,283.2
"2009-03-18 00:30:30",720400,12.25,323.3,0.883,0.333,14.97,106.5225,15.97,17,14.94,0,110.6,13.3,16.78,285.3
"2009-03-18 00:31:00",720401,11.79,321.8,1.422,0.259,14.99,106.5225,15.97,17,14.9,0,110.6,13.3,16.78,283.8
"2009-03-18 00:31:30",720402,11.3,320.4,2.06,0.272,15.04,106.5225,15.97,16.99,14.95,0,110.6,13.3,16.78,282.4
"2009-03-18 00:32:00",720403,11.64,318.4,1.793,0.238,15,106.5213,15.97,16.98,14.98,0,110.5,13.3,16.78,280.4
"2009-03-18 00:32:30",720404,11.58,318.6,3.135,0.339,15.12,106.518,15.96,16.97,14.98,0,110.5,13.3,16.77,280.6
"2009-03-18 00:33:00",720405,11.8,312.4,3.617,0.359,15.22,106.5126,15.95,16.97,14.33,0,110.5,13.3,16.75,274.4
"2009-03-18 00:33:30",720406,11.92,315.2,1.895,0.346,15.24,106.5042,15.92,16.97,14.33,0,110.5,13.3,16.73,277.2
"2009-03-18 00:34:00",720407,11.31,307.8,4.459,0.426,15.29,106.4923,15.89,16.95,14.08,0,110.5,13.3,16.70,269.8
"2009-03-18 00:34:30",720408,11.22,316,3.788,0.285,15.05,106.489,15.89,16.96,14.16,0,110.5,13.3,16.69,278.0
"2009-03-18 00:35:00",720409,12.02,316.2,3.165,0.417,15.09,106.4887,15.88,16.94,14.55,0,110.5,13.3,16.69,278.2
"2009-03-18 00:35:30",720410,11.39,314.4,2.127,0.332,15.04,106.4887,15.88,16.93,14.74,0,110.5,13.3,16.69,276.4
"2009-03-18 00:36:00",720411,10.72,316.9,1.644,0.235,15.07,106.4887,15.88,16.92,14.85,0,110.5,13.3,16.69,278.9
"2009-03-18 00:36:30",720412,11.27,311.3,1.797,0.198,15.11,106.4887,15.88,16.92,14.94,0,110.5,13.3,16.69,273.3
"2009-03-18 00:37:00",720413,11.55,310.7,1.547,0.164,15.1,106.4887,15.88,16.92,15.1,0,110.5,13.3,16.69,272.7
"2009-03-18 00:37:30",720414,11.35,314.9,1.224,0.195,15.05,106.4887,15.88,16.92,14.98,0,110.5,13.3,16.69,276.9
"2009-03-18 00:38:00",720415,11.37,316.6,2.58,0.488,15.11,106.4887,15.88,16.92,14.58,0,110.5,13.3,16.69,278.6
"2009-03-18 00:38:30",720416,10.96,315.5,2.573,0.308,15.13,106.4887,15.88,16.92,14.31,0,110.5,13.3,16.69,277.5
"2009-03-18 00:39:00",720417,10.74,315.6,3.347,0.562,15.05,106.4887,15.88,16.92,14.37,0,110.5,13.3,16.69,277.6
"2009-03-18 00:39:30",720418,11.28,315.3,1.995,0.71,15.08,106.4887,15.88,16.91,14.51,0,110.5,13.3,16.69,277.3
"2009-03-18 00:40:00",720419,11.01,313.7,2.969,0.406,15.13,106.4887,15.88,16.9,14.5,0,110.5,13.3,16.69,275.7
"2009-03-18 00:40:30",720420,10.57,312.6,2.163,0.387,15.09,106.4887,15.88,16.91,14.24,0,110.5,13.3,16.69,274.6
"2009-03-18 00:41:00",720421,10.62,314.4,2.437,0.57,15.08,106.4887,15.88,16.91,14.31,0,110.5,13.3,16.69,276.4
"2009-03-18 00:41:30",720422,10.78,316.9,2.974,0.926,15.12,106.4884,15.88,16.9,14.16,0,110.5,13.3,16.69,278.9
"2009-03-18 00:42:00",720423,11.55,316.7,2.591,0.329,15.07,106.4887,15.88,16.89,14.24,0,110.5,13.3,16.69,278.7
"2009-03-18 00:42:30",720424,11.22,311.8,1.059,0.395,15.1,106.487,15.88,16.89,14.36,0,110.5,13.3,16.69,273.8
"2009-03-18 00:43:00",720425,11.71,305.5,4.173,0.194,15.27,106.4833,15.87,16.89,14.28,0,110.5,13.3,16.68,267.5
"2009-03-18 00:43:30",720426,11.67,311.1,2.683,0.448,15.22,106.4805,15.86,16.87,13.97,0,110.5,13.3,16.67,273.1
"2009-03-18 00:44:00",720427,11.4,306.1,2.434,0.442,15.36,106.4746,15.85,16.86,14.02,0,110.5,13.3,16.66,268.1
"2009-03-18 00:44:30",720428,10.89,310.7,3.537,0.51,15.29,106.4622,15.82,16.87,13.55,0,110.5,13.3,16.62,272.7
"2009-03-18 00:45:00",720429,10.67,311.6,1.869,0.474,15.13,106.4552,15.8,16.86,13.94,0,110.5,13.3,16.61,273.6
"2009-03-18 00:45:30",720430,10.24,313,1.956,0.539,15.15,106.4549,15.8,16.85,14.24,0,110.5,13.3,16.61,275.0
"2009-03-18 00:46:00",720431,10.73,311,1.004,0.298,15.17,106.4549,15.8,16.85,14.33,0,110.5,13.3,16.61,273.0
"2009-03-18 00:46:30",720432,9.99,312.7,2.517,0.421,15.21,106.4549,15.8,16.85,14.32,0,110.5,13.3,16.61,274.7
"2009-03-18 00:47:00",720433,10.55,319.2,3.083,0.598,15.32,106.4549,15.8,16.84,14.12,0,110.5,13.3,16.61,281.2
"2009-03-18 00:47:30",720434,10.76,317.5,1.697,0.254,15.33,106.4549,15.8,16.84,14.08,0,110.5,13.3,16.61,279.5
"2009-03-18 00:48:00",720435,11.09,316.1,1.737,0.33,15.37,106.4549,15.8,16.85,14.11,0,110.5,13.3,16.61,278.1
"2009-03-18 00:48:30",720436,11.34,314,1.063,0.251,15.39,106.4549,15.8,16.82,14.08,0,110.5,13.3,16.61,276.0
"2009-03-18 00:49:00",720437,10.88,315.3,1.494,0.381,15.38,106.4549,15.8,16.82,14.15,0,110.5,13.31,16.61,277.3
"2009-03-18 00:49:30",720438,10.5,316.6,2.043,0.461,15.39,106.4467,15.78,16.82,14.19,0,110.5,13.31,16.58,278.6
"2009-03-18 00:50:00",720439,10.91,313.6,1.778,0.325,15.4,106.4343,15.75,16.82,14.22,0,110.5,13.3,16.55,275.6
"2009-03-18 00:50:30",720440,10.27,313.3,1.308,0.408,15.47,106.4211,15.71,16.79,14.18,0,110.5,13.31,16.52,275.3
"2009-03-18 00:51:00",720441,9.48,311.8,4.732,0.754,15.46,106.4217,15.71,16.77,14.02,0,110.5,13.31,16.52,273.8
"2009-03-18 00:51:30",720442,11.2,309,3.632,0.38,15.51,106.4215,15.71,16.78,14.14,0,110.5,13.31,16.52,271.0
"2009-03-18 00:52:00",720443,12.17,303.5,2.524,0.405,15.68,106.4039,15.67,16.76,13.52,0,110.5,13.31,16.47,265.5
"2009-03-18 00:52:30",720444,11.78,303.6,2.394,0.388,15.59,106.3912,15.63,16.75,13.43,0,110.5,13.31,16.44,265.6
"2009-03-18 00:53:00",720445,10.94,303.5,3.565,0.328,15.54,106.3933,15.64,16.73,13.52,0,110.5,13.31,16.45,265.5
"2009-03-18 00:53:30",720446,11.6,302.8,3.144,0.49,15.48,106.396,15.65,16.72,13.61,0,110.5,13.31,16.45,264.8
"2009-03-18 00:54:00",720447,10.06,314.9,2.465,0.633,15.23,106.3908,15.63,16.7,13.98,0,110.5,13.31,16.44,276.9
"2009-03-18 00:54:30",720448,9.9,312.5,3.467,0.25,15.37,106.3817,15.61,16.69,14.27,0,110.5,13.31,16.42,274.5
"2009-03-18 00:55:00",720449,9.2,314.3,1.335,0.31,15.26,106.3704,15.58,16.66,14.4,0,110.5,13.31,16.39,276.3
"2009-03-18 00:55:30",720450,9.44,316.3,2.005,0.403,15.35,106.37,15.58,16.66,14.54,0,110.5,13.31,16.39,278.3
"2009-03-18 00:56:00",720451,10.17,311.6,3.355,0.332,15.42,106.3739,15.59,16.65,14.42,0,110.5,13.31,16.40,273.6
"2009-03-18 00:56:30",720452,9.91,309.2,2.049,0.196,15.3,106.3761,15.6,16.62,14.4,0,110.5,13.31,16.40,271.2
"2009-03-18 00:57:00",720453,9.82,308.6,2.351,0.339,15.31,106.3642,15.57,16.62,14.58,0,110.5,13.31,16.37,270.6
"2009-03-18 00:57:30",720454,9.29,307.9,3.687,0.303,15.34,106.352,15.53,16.6,14.51,0,110.5,13.31,16.34,269.9
"2009-03-18 00:58:00",720455,10.92,316.9,0.994,0.362,15.43,106.3547,15.54,16.58,14.49,0,110.5,13.31,16.35,278.9
"2009-03-18 00:58:30",720456,10.7,315.9,1.758,0.443,15.51,106.3547,15.54,16.56,14.45,0,110.5,13.31,16.35,277.9
"2009-03-18 00:59:00",720457,10.04,313.7,2.103,0.428,15.63,106.3525,15.54,16.55,14.21,0,110.5,13.31,16.34,275.7
"2009-03-18 00:59:30",720458,8.92,310.5,2.989,0.553,15.57,106.3362,15.49,16.54,14.08,0,110.5,13.31,16.30,272.5
"2009-03-18 01:00:00",720459,9.46,315.9,3.821,0.553,15.5,106.3221,15.46,16.53,14.17,0,110.5,13.31,16.26,277.9
"2009-03-18 01:00:30",720460,9.67,313.2,1.649,0.31,15.52,106.3218,15.46,16.51,14.17,0,110.5,13.31,16.26,275.2
"2009-03-18 01:01:00",720461,9.26,314.9,1.89,0.186,15.29,106.3218,15.46,16.5,14.38,0,110.5,13.31,16.26,276.9
"2009-03-18 01:01:30",720462,9.49,313.6,1.52,0.422,15.35,106.3218,15.46,16.49,14.66,0,110.5,13.31,16.26,275.6
"2009-03-18 01:02:00",720463,10.63,318.2,2.185,0.397,15.39,106.3196,15.45,16.48,14.9,0,110.5,13.31,16.26,280.2
"2009-03-18 01:02:30",720464,10.55,313,1.51,0.399,15.42,106.3086,15.42,16.47,15.04,0,110.5,13.31,16.23,275.0
"2009-03-18 01:03:00",720465,10.05,314.8,0.763,0.242,15.45,106.2923,15.38,16.45,15.03,0,110.5,13.31,16.19,276.8
"2009-03-18 01:03:30",720466,9.71,312,1.358,0.15,15.35,106.288,15.37,16.45,15.12,0,110.5,13.31,16.18,274.0
"2009-03-18 01:04:00",720467,9.22,308.8,1.658,0.36,15.45,106.288,15.37,16.42,15.1,0,110.5,13.32,16.18,270.8
"2009-03-18 01:04:30",720468,8.84,312.2,2.439,0.9,15.47,106.288,15.37,16.43,14.66,0,110.5,13.32,16.18,274.2
"2009-03-18 01:05:00",720469,9.77,315.7,1.45,0.357,15.53,106.288,15.37,16.43,14.74,0,110.5,13.32,16.18,277.7
"2009-03-18 01:05:30",720470,10.61,316,1.124,0.197,15.58,106.2824,15.36,16.39,14.66,0,110.5,13.32,16.16,278.0
"2009-03-18 01:06:00",720471,10.77,313.4,0.996,0.28,15.61,106.2692,15.32,16.39,14.67,0,110.5,13.32,16.13,275.4
"2009-03-18 01:06:30",720472,10.36,312.2,1.329,0.248,15.56,106.2551,15.29,16.37,14.67,0,110.5,13.32,16.09,274.2
"2009-03-18 01:07:00",720473,10.11,311.3,1.296,0.192,15.55,106.2542,15.28,16.37,14.66,0,110.5,13.32,16.09,273.3
"2009-03-18 01:07:30",720474,9.62,309.6,1.055,0.197,15.53,106.2542,15.28,16.35,14.69,0,110.5,13.33,16.09,271.6
"2009-03-18 01:08:00",720475,9.73,311,1.697,0.192,15.51,106.2542,15.28,16.34,14.75,0,110.5,13.33,16.09,273.0
"2009-03-18 01:08:30",720476,9.89,312.2,1.773,0.31,15.5,106.2534,15.28,16.34,14.79,0,110.5,13.33,16.09,274.2
"2009-03-18 01:09:00",720477,10.12,312.8,2.307,0.199,15.48,106.2486,15.27,16.33,14.79,0,110.5,13.33,16.07,274.8
"2009-03-18 01:09:30",720478,9.52,311.5,1.807,0.182,15.49,106.2407,15.25,16.31,14.79,0,110.5,13.33,16.05,273.5
"2009-03-18 01:10:00",720479,9.8,310.4,1.56,0.227,15.45,106.2247,15.21,16.3,14.79,0,110.5,13.33,16.01,272.4
"2009-03-18 01:10:30",720480,9.62,312.2,1.058,0.301,15.44,106.2204,15.2,16.29,14.79,0,110.5,13.33,16.00,274.2
"2009-03-18 01:11:00",720481,9.16,312.7,1.757,0.394,15.44,106.2204,15.2,16.28,14.86,0,110.4,13.33,16.00,274.7
"2009-03-18 01:11:30",720482,9.01,312.7,2.397,0.242,15.48,106.2204,15.2,16.29,14.87,0,110.4,13.33,16.00,274.7
"2009-03-18 01:12:00",720483,8.79,312.1,2.915,0.183,15.4,106.2207,15.2,16.26,14.67,0,110.4,13.33,16.00,274.1
"2009-03-18 01:12:30",720484,9.22,310.9,3.739,0.372,15.47,106.2216,15.2,16.26,14.77,0,110.4,13.33,16.01,272.9
"2009-03-18 01:13:00",720485,9.07,311.2,4.166,0.244,15.48,106.2223,15.2,16.24,14.48,0,110.5,13.33,16.01,273.2
"2009-03-18 01:13:30",720486,9.12,313.4,1.249,0.207,15.42,106.2126,15.18,16.24,14.69,0,110.5,13.33,15.98,275.4
"2009-03-18 01:14:00",720487,9.67,312.3,1.302,0.19,15.5,106.202,15.15,16.24,14.79,0,110.5,13.33,15.96,274.3
"2009-03-18 01:14:30",720488,9.56,313.9,0.912,0.174,15.41,106.1978,15.14,16.22,14.73,0,110.5,13.33,15.94,275.9
"2009-03-18 01:15:00",720489,9.57,313.5,1.064,0.229,15.4,106.1986,15.14,16.23,14.86,0,110.5,13.33,15.95,275.5
"2009-03-18 01:15:30",720490,9.7,314,1.337,0.17,15.46,106.1995,15.14,16.22,14.72,0,110.4,13.33,15.95,276.0
"2009-03-18 01:16:00",720491,9.82,315.2,1.472,0.282,15.5,106.2025,15.15,16.21,14.6,0,110.4,13.33,15.96,277.2
"2009-03-18 01:16:30",720492,10.21,314.9,1.354,0.511,15.5,106.2046,15.16,16.2,14.55,0,110.4,13.32,15.96,276.9
"2009-03-18 01:17:00",720493,10.81,314.1,2.112,0.168,15.49,106.2096,15.17,16.2,14.53,0,110.4,13.33,15.97,276.1
"2009-03-18 01:17:30",720494,11.34,319,2.911,0.465,15.49,106.2133,15.18,16.19,14.5,0,110.4,13.32,15.98,281.0
"2009-03-18 01:18:00",720495,11.16,320.5,1.92,0.526,15.46,106.2164,15.19,16.18,14.52,0,110.4,13.33,15.99,282.5
"2009-03-18 01:18:30",720496,11.11,321.9,1.435,0.458,15.44,106.2069,15.16,16.16,14.57,0,110.4,13.33,15.97,283.9
"2009-03-18 01:19:00",720497,10.94,320.4,2.271,0.453,15.44,106.1957,15.13,16.16,14.6,0,110.4,13.33,15.94,282.4
"2009-03-18 01:19:30",720498,10.95,317.2,2.634,0.239,15.42,106.189,15.12,16.16,14.61,0,110.4,13.33,15.92,279.2
"2009-03-18 01:20:00",720499,11.4,321.1,1.232,0.262,15.49,106.1887,15.12,16.15,14.6,0,110.4,13.33,15.92,283.1
"2009-03-18 01:20:30",720500,10.99,324.6,1.531,0.231,15.4,106.1887,15.12,16.14,14.68,0,110.4,13.33,15.92,286.6
"2009-03-18 01:21:00",720501,10.89,323.6,1.511,0.327,15.34,106.1887,15.12,16.14,14.75,0,110.4,13.33,15.92,285.6
"2009-03-18 01:21:30",720502,11.14,322.3,1.913,0.318,15.39,106.1887,15.12,16.12,14.85,0,110.4,13.33,15.92,284.3
"2009-03-18 01:22:00",720503,10.68,323.3,1.235,0.283,15.39,106.1884,15.12,16.12,14.88,0,110.4,13.33,15.92,285.3
"2009-03-18 01:22:30",720504,11.49,323.3,1.036,0.169,15.5,106.1831,15.1,16.1,14.82,0,110.4,13.34,15.91,285.3
"2009-03-18 01:23:00",720505,11.42,323.7,1.065,0.322,15.47,106.1769,15.09,16.1,14.75,0,110.4,13.34,15.89,285.7
"2009-03-18 01:23:30",720506,11.01,323.3,1.129,0.448,15.52,106.1704,15.07,16.09,14.77,0,110.4,13.34,15.87,285.3
"2009-03-18 01:24:00",720507,10.14,323.4,1.449,0.416,15.31,106.1605,15.04,16.09,14.74,0,110.4,13.34,15.85,285.4
"2009-03-18 01:24:30",720508,10.94,322,2.034,0.251,15.56,106.1549,15.03,16.06,14.8,0,110.4,13.34,15.83,284.0
"2009-03-18 01:25:00",720509,10.72,315.4,2.011,0.265,15.63,106.1549,15.03,16.06,14.48,0,110.4,13.34,15.83,277.4
"2009-03-18 01:25:30",720510,10,318.6,3.33,0.304,15.58,106.1549,15.03,16.06,14.33,0,110.4,13.34,15.83,280.6
"2009-03-18 01:26:00",720511,10.36,319.5,1.961,0.607,15.57,106.1549,15.03,16.04,14.32,0,110.4,13.34,15.83,281.5
"2009-03-18 01:26:30",720512,11.35,319.9,1.691,0.205,15.42,106.1549,15.03,16.03,14.46,0,110.4,13.34,15.83,281.9
"2009-03-18 01:27:00",720513,11.34,317.4,1.446,0.232,15.52,106.1543,15.03,16.03,14.55,0,110.4,13.34,15.83,279.4
"2009-03-18 01:27:30",720514,11.56,315.9,1.775,0.164,15.52,106.1501,15.02,16.01,14.54,0,110.4,13.34,15.82,277.9
"2009-03-18 01:28:00",720515,11.32,318.1,1,0.152,15.54,106.1481,15.01,16.01,14.53,0,110.4,13.34,15.82,280.1
"2009-03-18 01:28:30",720516,10.43,316.1,1.987,0.467,15.55,106.1464,15.01,16.01,14.46,0,110.4,13.34,15.81,278.1
"2009-03-18 01:29:00",720517,10.74,320.3,1.101,0.306,15.48,106.1461,15.01,16.01,14.46,0,110.4,13.34,15.81,282.3
"2009-03-18 01:29:30",720518,11.05,320.7,1.054,0.368,15.53,106.1445,15,16,14.48,0,110.4,13.34,15.81,282.7
"2009-03-18 01:30:00",720519,10.68,319.4,1.142,0.259,15.51,106.1422,15,16,14.44,0,110.4,13.34,15.80,281.4
"2009-03-18 01:30:30",720520,10.55,319.1,1.639,0.344,15.51,106.1411,14.99,16,14.45,0,110.4,13.34,15.80,281.1
"2009-03-18 01:31:00",720521,10.66,317.2,2.341,0.276,15.51,106.1394,14.99,16,14.43,0,110.4,13.34,15.79,279.2
"2009-03-18 01:31:30",720522,11.06,318.8,1.665,0.272,15.47,106.1374,14.98,16,14.4,0,110.4,13.34,15.79,280.8
"2009-03-18 01:32:00",720523,11.64,318.9,1.616,0.258,15.38,106.1332,14.97,15.99,14.44,0,110.4,13.34,15.78,280.9
"2009-03-18 01:32:30",720524,11.56,318.3,1.589,0.163,15.41,106.1298,14.97,16,14.45,0,110.4,13.33,15.77,280.3
"2009-03-18 01:33:00",720525,11.89,319.3,2.379,0.31,15.47,106.1284,14.96,15.99,14.42,0,110.4,13.33,15.77,281.3
"2009-03-18 01:33:30",720526,11.48,316.1,2.251,0.238,15.49,106.1256,14.95,15.99,14.4,0,110.4,13.33,15.76,278.1
"2009-03-18 01:34:00",720527,11.28,320.5,3.045,0.289,15.45,106.125,14.95,16.01,14.41,0,110.4,13.33,15.76,282.5
"2009-03-18 01:34:30",720528,11.49,318.3,2.795,0.231,15.42,106.123,14.95,15.99,14.45,0,110.4,13.33,15.75,280.3
"2009-03-18 01:35:00",720529,12.03,326.1,2.117,0.215,15.29,106.1228,14.95,15.99,14.64,0,110.4,13.34,15.75,288.1
"2009-03-18 01:35:30",720530,12.03,329.6,0.767,0.199,15.33,106.1213,14.94,15.98,14.85,0,110.4,13.33,15.75,291.6
"2009-03-18 01:36:00",720531,11.99,328.4,1.287,0.326,15.33,106.1213,14.94,15.99,14.92,0,110.4,13.33,15.75,290.4
"2009-03-18 01:36:30",720532,11.99,329.5,1.133,0.298,15.31,106.1214,14.94,16,15.03,0,110.4,13.34,15.75,291.5
"2009-03-18 01:37:00",720533,11.85,328.6,0.526,0.125,15.26,106.1211,14.94,15.99,15.1,0,110.4,13.34,15.75,290.6
"2009-03-18 01:37:30",720534,12.06,328.5,0.879,0.161,15.22,106.1226,14.95,15.98,15.21,0,110.4,13.34,15.75,290.5
"2009-03-18 01:38:00",720535,12.26,327.8,0.687,0.168,15.23,106.122,14.95,16,15.26,0,110.4,13.34,15.75,289.8
"2009-03-18 01:38:30",720536,12.73,329.1,0.646,0.218,15.37,106.122,14.95,15.99,15.21,0,110.4,13.34,15.75,291.1
"2009-03-18 01:39:00",720537,12.34,328.4,1.677,0.298,15.45,106.1226,14.95,15.99,15.11,0,110.4,13.34,15.75,290.4
"2009-03-18 01:39:30",720538,12.45,332.2,1.01,0.167,15.41,106.125,14.95,15.98,15.1,0,110.4,13.34,15.76,294.2
"2009-03-18 01:40:00",720539,12.26,329.9,2.116,0.242,15.39,106.1259,14.96,15.96,15.13,0,110.4,13.34,15.76,291.9
"2009-03-18 01:40:30",720540,12.29,329.4,1.564,0.343,15.4,106.1258,14.96,15.96,15.11,0,110.4,13.34,15.76,291.4
"2009-03-18 01:41:00",720541,12.1,322.7,2.652,0.487,15.46,106.1183,14.94,15.96,15,0,110.4,13.34,15.74,284.7
"2009-03-18 01:41:30",720542,10.09,321.4,3.078,0.66,15.45,106.1148,14.93,15.94,14.71,0,110.4,13.34,15.73,283.4
"2009-03-18 01:42:00",720543,11.47,331.1,1.656,0.53,15.44,106.109,14.91,15.94,14.79,0,110.4,13.35,15.72,293.1
"2009-03-18 01:42:30",720544,12.01,330,1.659,0.297,15.28,106.1049,14.9,15.94,14.96,0,110.4,13.35,15.71,292.0
"2009-03-18 01:43:00",720545,11.69,327.2,2.041,0.322,15.31,106.1058,14.9,15.93,15.13,0,110.4,13.35,15.71,289.2
"2009-03-18 01:43:30",720546,10.88,324.2,2.903,0.434,15.46,106.107,14.91,15.93,15,0,110.4,13.35,15.71,286.2
"2009-03-18 01:44:00",720547,11.24,328,1.899,0.438,15.31,106.1067,14.91,15.92,14.91,0,110.4,13.35,15.71,290.0
"2009-03-18 01:44:30",720548,11.21,327.6,2.208,0.326,15.34,106.1103,14.92,15.91,15.03,0,110.4,13.35,15.72,289.6
"2009-03-18 01:45:00",720549,11.7,328.5,0.749,0.232,15.26,106.1121,14.92,15.9,15.2,0,110.4,13.35,15.72,290.5
"2009-03-18 01:45:30",720550,11.03,325.3,1.957,0.288,15.4,106.1136,14.92,15.89,15.2,0,110.4,13.35,15.73,287.3
"2009-03-18 01:46:00",720551,10.96,328.6,1.659,0.396,15.34,106.1133,14.92,15.89,15.24,0,110.4,13.35,15.73,290.6
"2009-03-18 01:46:30",720552,10.96,326.6,0.839,0.213,15.3,106.1123,14.92,15.89,15.19,0,110.4,13.35,15.72,288.6
"2009-03-18 01:47:00",720553,11.16,328,1.564,0.248,15.22,106.1079,14.91,15.87,15.26,0,110.4,13.35,15.71,290.0
"2009-03-18 01:47:30",720554,11.15,325.6,1.701,0.162,15.23,106.1035,14.9,15.89,15.37,0,110.4,13.35,15.70,287.6
"2009-03-18 01:48:00",720555,10.93,325.4,1.32,0.229,15.31,106.0918,14.87,15.87,15.33,0,110.4,13.35,15.67,287.4
"2009-03-18 01:48:30",720556,11.32,324.3,1.401,0.231,15.3,106.089,14.86,15.86,15.35,0,110.4,13.34,15.66,286.3